sat.trackr.live / text

‹ back to catalog

STARLINK-36717

NORAD 67743 · 2026-026Y

PAYLOAD ACTIVE UNKNOWN

§ Identity

Operator
Country
US
Launch date
2026-02-11
Launch site
AFWTR
Launch vehicle
Mass (kg)
RCS (m²)

Purposes: comms

External: N2YO · Heavens-Above · Gunter

§ Orbital elements

Epoch: 2026-09-19T09:14:30.413472Z

Period
93.91 min
Inclination
97.2837°
Eccentricity
0.0000889
Mean motion
15.33448743 rev/d
Perigee alt
464.9 km
Apogee alt
466.1 km
Semi-major
6,843.7 km
B*
3.2324e-4
RAAN
314.2925°
Arg perigee
114.7780°
Mean anomaly
245.3555°
Rev number
3,381

§ Raw data

STARLINK-367171 67743U 26026Y   26262.38507423  .00010376  00000+0  32324-3 0  99962 67743  97.2837 314.2925 0000889 114.7780 245.3555 15.33448743 33810

JSON: /api/v1/satellites/67743 · /tle

For live sub-satellite position, see the globe view (requires WebGL).

§ Visibility from observer

Set your observer location to see the next 7 days of passes ≥ 10°. The values pass through the URL so the page stays shareable.

No JS? Fill the form by hand. The geolocation button needs JavaScript.